EHI
0 0 0 0 0 0 0 0 0 0 0 0 0 0 0 0 0 0 0 0 0 0 0 0 0 0 0 0 0 0 0 0 0 0 0 0 0 0 0 0 0 0 0 0
0 0 0 0 0 0 0 0 0 0 0 0 0 0 0 0 0 0 0 0 0 0 0 0 0 0 0 0 0 0 0 0 0 0 0 0 0 0 0 0 0 0 0 0
0 0 0 0 0 0 0 0 0 0 0 0 0 0 0 0 0 0 0 0 0 0 0 0 0 0 0 0 0 0 0 0 0 0 0 0 0 0 0 0 0 0 0 0
0 0 0 0 0 0 0 0 0 0 0 0 0 0 0 0 0 0 0 0 0 0 0 0 0 0 0 0 0 0 0 0 0 0 0 0 0 0 0 0 0 0 0 0
0 0 0 0 0 0 0 0 0 0 0 0 0 0 0 0 0 0 0 0 0 0 0 0 0 0 0 0 0 0 0 0 0 0 0 0 0 0 0 0 0 0 0 0
0 0 0 0 0 0 0 0 0 0 0 0 0 0 0 0 0 0 0 0 0 0 0 0 0 0 0 0 0 0 0 0 0 0 0 0 0 0 0 0 0 0 0 0
0 0 0 0 0 0 0 0 0 0 0 0 0 0 0 0 0 0 0 0 0 0 0 0 0 0 0 0 0 0 0 0 0 0 0 0 0 0 0 0 0 0 0 0
0 0 0 0 0 0 0 0 0 0 0 0 0 0 0 0 0 0 0 0 0 0 0 0 0 0 0 0 0 0 0 0 0 0 0 0 0 0 0 0 0 0 0 0
0 0 0 0 0 0 0 0 0 0 0 0 0 0 0 0 0 0 0 0 0 0 0 0 0 0 0 0 0 0 0 0 0 0 0 0 0 0 0 0 0 0 0 0
0 0 0 0 0 0 0 0 0 0 0 0 0 0 0 0 0 0 0 0 0 0 0 0 0 0 0 0 0 0 0 0 0 0 0 0 0 0 0 0 0 0 0 0
0 0 0 0 0 0 0 0 0 0 0 0 0 0 0 0 0 0 0 0 0 0 0 0 0 0 0 0 0 0 0 0 0 0 0 0 0 0 0 0 0 0 0 0
0 0 0 0 0 0 0 0 0 0 0 0 0 0 0 0 0 0 0 0 0 0 0 0 0 0 0 0 0 0 0 0 0 0 0 0 0 0 0 0 0 0 0 0
0 0 0 0 0 0 0 0 0 0 0 0 0 0 0 0 0 0 0 0 0 0 0 0 0 0 0 0 0 0 0 0 0 0 0 0 0 0 0 0 0 0 0 0
0 0 0 0 0 0 0 0 0 0 0 0 0 0 0 0 0 0 0 0 0 0 0 0 0 0 0 0 0 0 0 0 0 0 0 0 0 0 0 0 0 0 0 0
0 0 0 0 0 0 0 0 0 0 0 0 0 0 0 0 0 0 0 0 0 0 0 0 0 0 0 0 0 0 0 0 0 0 0 0 0 0 0 0 0 0 0 0
0 0 0 0 0 0 0 0 0 0 0 0 0 0 0 0 0 0 0 0 0 0 0 0 0 0 0 0 0 0 0 0 0 0 0 0 0 0 0 0 0 0 0 0
0 0 0 0 0 0 0 0 0 0 0 0 0 0 0 0 0 0 0 0 0 0 0 0 0 0 0 0 0 0 0 0 0 0 0 0 0 0 0 0 0 0 0 0
0 0 0 0 0 0 0 0 0 0 0 0 0 0 0 0 0 0 0 0 0 0 0 0 0 0 0 0 0 0 0 0 0 0 0 0 0 0 0 0 0 0 0 0
0 0 0 0 0 0 0 0 0 0 0 0 0 0 0 0 0 0 0 0 0 0 0 0 0 0 0 0 0 0 0 0 0 0 0 0 0 0 0 0 0 0 0 0
0 0 0 0 0 0 0 0 0 0 0 0 0 0 0 0 0 0 0 0 0 0 0 0 0 0 0 0 0 0 0 0 0 0 0 0 0 0 0 0 0 0 0 0
0 0 0 0 0 0 0 0 0 0 0 0 0 0 0 0 0 0 0 0 0 0 0 0 0 0 0 0 0 0 0 0 0 0 0 0 0 0 0 0 0 0 0 0
0 0 0 0 0 0 0 0 0 0 0 0 0 0 0 0 0 0 0 0 0 0 0 0 0 0 0 0 0 0 0 0 0 0 0 0 0 0 0 0 0 0 0 0
0 0 0 0 0 0 0 0 0 0 0 0 0 0 0 0 0 0 0 0 0 0 0 0 0 0 0 0 0 0 0 0 0 0 0 0 0 0 0 0 0 0 0 0
0 0 0 0 0 0 0 0 0 0 0 0 0 0 0 0 0 0 0 0 0 0 0 0 0 0 0 0 0 0 0 0 0 0 0 0 0 0 0 0 0 0 0 0
0 0 0 0 0 0 0 0 0 0 0 0 0 0 0 0 0 0 0 0 0 0 0 0 0 0 0 0 0 0 0 0 0 0 0 0 0 0 0 0 0 0 0 0
0 0 0 0 0 0 0 0 0 0 0 0 0 0 0 0 0 0 0 0 0 0 0 0 0 0 0 0 0 0 0 0 0 0 0 0 0 0 0 0 0 0 0 0
Wind_Speed
4 5 3 0 1 2 2 2 2 3 2 1 4 6 8 5 2 2 2 1 1 2 2 2 3 4 5 5 5 5 4 4 3 2 1 1 2 1 2 2 2 2 3 3
5 3 1 1 0 2 2 2 1 2 2 1 3 6 6 5 3 3 3 2 1 2 3 4 4 5 5 5 5 5 5 5 3 2 2 2 2 1 2 2 2 1 2 2
3 2 1 2 3 3 2 2 1 1 4 2 2 5 4 3 1 0 1 1 1 1 2 3 4 4 4 5 5 5 6 5 4 3 2 1 1 1 1 1 1 1 1 1
2 3 2 2 2 1 1 1 1 0 2 3 1 4 6 3 2 1 2 1 2 2 2 3 4 4 4 4 4 5 5 5 4 3 1 1 1 1 2 1 1 1 1 1
2 2 2 1 2 0 2 2 1 0 1 2 1 2 8 2 4 5 4 3 3 2 2 2 3 4 4 5 4 4 5 5 4 3 2 1 1 1 1 1 1 1 1 0
1 1 0 1 2 1 2 3 3 3 3 2 4 3 7 4 6 4 4 4 3 2 2 2 3 4 4 5 5 4 4 5 4 4 3 1 1 1 1 1 1 1 1 1
4 3 2 1 2 3 4 4 3 4 2 5 2 3 9 6 5 5 5 5 4 2 2 2 3 4 4 5 5 4 4 5 4 4 3 2 1 1 1 1 1 1 1 1
3 4 3 1 1 1 0 3 3 2 3 5 2 5 7 4 3 3 3 3 3 2 2 2 3 3 3 4 5 5 4 4 4 3 3 3 2 1 1 1 1 1 1 1
1 4 3 2 1 2 1 1 2 3 1 4 5 6 7 1 1 2 2 2 3 3 3 3 3 2 3 4 4 4 3 4 4 3 3 3 3 2 2 2 1 1 1 1
1 3 4 2 1 1 1 2 3 2 1 4 6 5 5 4 5 4 4 4 4 3 3 3 3 2 2 3 3 3 3 3 3 3 3 2 3 2 2 1 2 2 1 1
0 1 4 2 2 3 2 1 2 2 2 2 5 8 5 6 5 6 6 5 5 4 4 3 3 2 2 2 2 2 3 3 3 3 2 2 2 2 2 2 1 1 1 1
0 1 3 5 4 2 4 4 4 2 3 3 3 10 4 4 4 4 5 5 4 4 4 3 3 2 1 2 2 2 2 2 2 2 2 2 2 2 2 1 1 1 1 1
1 2 3 5 3 1 2 3 3 3 2 3 4 10 3 1 2 3 4 4 4 4 3 3 2 2 2 2 2 2 2 2 2 1 1 1 2 2 2 2 2 1 1 1
2 2 5 7 5 3 5 5 5 4 4 5 10 11 8 5 5 5 4 5 4 4 4 4 3 3 3 2 2 2 2 2 1 1 1 1 1 1 2 2 2 1 1 1
2 3 5 9 9 7 10 11 9 10 10 10 9 9 13 8 7 6 5 5 4 4 4 5 4 4 3 2 2 2 3 2 1 1 1 1 1 1 1 1 1 1 1 1
1 3 3 6 6 7 11 14 12 12 12 13 12 15 11 7 4 5 5 5 5 6 6 5 4 4 4 3 3 3 3 2 1 1 2 2 1 1 1 1 1 1 1 1
2 1 2 5 6 6 10 11 10 8 8 9 13 13 6 5 6 7 7 6 7 7 6 6 5 5 5 4 4 3 3 2 1 1 2 1 1 1 1 1 1 1 0 0
4 2 2 4 5 7 9 3 5 7 8 9 9 8 7 8 7 6 6 7 7 6 6 6 5 5 4 3 3 3 2 1 1 1 1 1 1 1 0 1 1 1 0 0
7 5 2 2 4 11 10 5 4 5 7 8 10 9 6 3 2 5 6 6 7 7 6 6 5 5 4 4 3 2 2 2 2 2 2 1 1 0 0 0 1 1 0 1
4 4 3 3 4 9 7 2 1 2 7 5 6 7 5 3 2 6 5 5 5 5 4 4 4 3 3 4 3 3 3 3 3 3 3 2 1 1 1 1 1 1 0 1
4 4 7 7 7 12 8 3 3 3 7 3 4 5 6 7 9 5 3 4 5 4 4 4 4 4 4 4 3 4 3 5 5 3 2 2 1 2 1 1 1 1 0 0
9 7 8 7 8 14 5 6 8 9 4 3 4 5 6 8 7 5 5 5 5 4 4 4 4 4 4 4 4 4 5 5 3 2 2 2 2 1 1 1 1 0 1 1
10 11 8 12 13 7 5 9 8 5 5 5 5 6 6 6 6 6 5 6 5 5 5 4 5 5 4 4 5 6 6 3 3 3 3 2 2 1 1 1 1 1 1 1
6 5 6 8 12 10 9 9 9 8 9 8 7 7 6 7 7 7 6 6 6 6 5 5 5 5 5 5 5 6 4 3 4 4 4 3 2 2 1 1 1 1 1 1
8 5 6 10 11 8 10 11 11 9 8 8 8 8 9 8 8 8 7 7 6 6 5 5 6 6 6 5 5 5 4 4 4 4 4 3 3 2 2 2 2 2 2 3
10 11 10 13 10 8 9 7 7 8 9 9 9 9 8 9 9 8 8 7 6 6 5 5 6 6 6 5 5 5 4 5 5 4 4 3 3 2 2 2 1 2 3 3
Wind_Direction
29 60 65 195 187 192 173 171 224 257 255 250 247 265 280 278 240 229 233 242 268 286 305 335 344 342 343 339 338 327 319 314 314 306 289 273 270 278 280 264 258 250 246 219
47 39 294 235 56 72 100 133 267 309 318 262 257 271 273 263 236 211 202 211 240 313 344 348 348 349 347 340 337 328 323 317 310 297 271 243 242 252 251 270 284 279 255 233
89 276 312 60 43 55 41 152 203 266 333 354 347 309 291 289 296 90 126 185 220 276 313 326 339 341 345 343 334 328 324 321 318 308 299 303 310 324 321 312 299 300 274 244
33 337 36 62 26 68 325 236 205 20 29 311 41 296 286 274 293 269 245 261 269 286 306 318 329 333 331 322 321 325 326 326 323 320 307 264 248 254 272 276 266 291 291 258
354 348 39 37 319 58 251 292 295 226 116 322 294 228 282 286 260 260 243 245 257 266 284 308 315 317 325 327 326 325 328 334 332 329 321 292 262 257 274 295 297 302 308 303
315 321 87 247 321 345 328 20 33 42 65 294 234 197 276 241 230 248 237 234 242 256 278 300 317 329 330 333 335 334 340 340 340 343 347 347 309 282 300 306 293 302 308 332
350 337 339 23 15 5 39 65 37 6 355 262 244 207 253 247 226 218 219 224 229 234 256 300 320 328 329 330 332 335 344 341 342 351 357 2 349 343 272 267 255 260 281 301
6 316 288 296 198 219 313 122 141 201 253 287 289 241 256 258 237 212 203 203 206 226 248 275 296 306 314 321 329 338 341 339 347 357 357 3 1 348 324 318 305 288 274 257
18 288 297 261 235 153 144 192 181 148 288 279 273 279 295 216 223 203 206 201 215 226 238 259 283 299 306 314 321 330 335 337 348 352 355 2 8 7 351 341 344 340 323 294
180 282 289 295 16 340 172 162 96 124 238 285 288 268 255 247 240 236 230 227 230 231 244 259 275 291 298 304 317 331 334 332 340 352 353 360 2 355 346 358 2 351 336 335
94 233 301 321 220 214 180 182 161 164 187 209 282 274 231 225 223 222 231 229 227 227 236 246 257 268 283 310 322 329 336 342 341 343 350 358 355 359 4 3 344 329 343 8
12 129 274 265 259 220 193 195 159 174 248 215 236 270 270 240 233 214 230 236 232 224 227 230 237 257 286 303 310 314 326 333 328 329 350 357 354 9 10 349 333 339 19 27
104 108 333 333 329 333 246 223 186 173 186 207 221 262 297 310 270 239 234 241 240 228 225 229 237 250 262 275 293 303 310 308 316 336 350 353 353 356 353 338 344 7 30 31
114 179 196 222 236 230 257 255 225 190 210 233 231 255 277 278 272 270 257 245 236 227 216 216 227 239 250 262 275 287 298 296 302 315 328 325 331 331 333 339 352 7 26 37
116 237 246 256 262 253 250 252 235 219 215 224 245 248 262 254 244 245 245 241 233 233 225 221 223 229 239 260 275 280 285 292 287 289 287 287 303 317 335 347 347 0 16 21
158 248 283 281 269 265 263 254 240 234 229 237 256 269 262 254 240 242 241 230 230 235 231 228 225 226 231 239 251 265 272 275 273 276 278 289 308 324 331 336 353 17 14 13
237 220 301 282 309 323 273 242 213 214 215 207 232 246 258 255 244 235 227 223 225 231 229 223 221 223 223 226 228 240 249 251 254 270 290 295 281 298 308 340 20 7 341 16
188 178 236 289 337 264 247 248 197 218 241 221 233 248 237 235 243 235 216 214 227 229 228 225 221 224 223 219 225 236 228 207 220 257 287 282 249 268 326 33 18 327 335 342
179 173 215 257 283 280 287 262 198 208 268 230 229 248 251 249 305 280 233 211 216 220 222 221 217 214 213 213 213 209 207 203 209 235 251 254 225 219 42 8 294 276 317 319
153 163 194 215 248 256 256 253 156 101 280 254 212 234 236 160 238 262 231 212 222 223 219 217 208 195 207 215 194 190 206 207 224 232 237 232 203 195 213 235 255 265 246 262
158 188 211 221 242 264 255 216 132 194 249 261 209 220 205 201 220 240 224 218 218 220 222 209 195 201 214 206 185 199 211 225 230 223 221 223 216 215 219 228 246 248 229 276
185 189 202 194 217 251 222 153 192 222 240 237 229 224 220 231 247 250 235 228 224 225 225 207 203 218 218 197 188 210 227 232 215 199 209 223 225 223 215 203 223 215 193 223
204 199 195 202 220 241 197 207 227 219 230 237 231 236 229 236 244 244 238 233 228 224 223 211 210 222 223 205 196 217 234 218 193 192 212 224 224 224 206 195 203 191 187 220
243 207 215 248 255 253 249 250 255 240 237 243 238 237 228 233 240 241 238 234 230 226 220 214 212 221 228 219 213 223 229 203 190 202 213 210 208 219 221 215 202 194 207 226
226 206 223 250 264 277 262 244 246 249 248 251 248 238 231 230 236 230 232 231 228 227 222 210 213 220 228 223 222 224 212 192 199 210 213 208 206 205 210 215 219 214 217 210
206 211 220 243 235 231 255 256 248 249 251 250 250 249 238 225 231 229 228 226 222 221 218 217 220 224 227 220 224 223 205 192 196 209 213 208 202 202 201 207 257 253 238 251